Temperature
16 16 17 18 20 21 22 22 22 21 22 22 21 23 25 26 26 24 20 20 20 19 17 17 17 16 16 16 16 16 16 16 16 16 16 16 16 16 16 16 16 16 16 16 16 16 16 16 16
15 16 17 18 20 20 21 21 21 22 21 20 20 21 23 23 20 19 20 19 20 19 17 16 17 16 16 16 16 16 16 16 16 16 16 16 16 16 16 16 17 17 17 17 17 17 16 16 16
15 16 17 19 20 21 21 21 21 21 20 20 21 21 21 21 18 18 19 19 19 18 17 16 16 16 16 16 16 16 16 16 17 16 16 16 16 16 16 17 17 17 17 17 17 17 17 16 16
15 16 18 19 19 21 21 20 20 20 20 20 21 21 19 16 16 17 19 18 17 17 16 16 16 16 16 16 16 16 16 17 17 16 16 16 16 16 16 17 17 17 17 17 17 17 17 16 16
15 17 18 19 19 20 20 19 18 21 21 20 21 21 19 16 16 17 18 17 16 17 16 16 16 16 16 16 16 16 17 17 17 16 16 16 16 16 16 17 17 17 17 17 17 17 17 17 16
15 17 18 18 19 19 19 18 18 20 20 19 20 20 17 16 16 16 17 16 16 16 16 15 16 16 16 16 16 16 17 17 17 17 16 16 16 16 16 17 17 17 17 17 17 17 17 17 16
15 17 18 19 19 18 18 17 18 19 20 18 18 19 16 15 15 15 16 16 16 16 16 15 15 15 15 16 16 16 17 17 17 17 17 17 17 17 17 17 17 17 17 17 17 17 17 16 16
14 16 17 18 18 18 17 17 16 18 18 16 16 19 16 15 15 15 15 15 15 15 15 15 15 15 15 15 16 16 16 17 17 17 17 17 17 17 17 17 17 16 16 16 16 16 16 16 16
13 14 16 17 18 18 17 17 16 16 16 15 15 15 15 15 15 15 15 15 15 15 15 15 15 15 15 15 15 16 16 16 17 17 17 17 16 16 17 17 17 16 16 16 16 16 16 16 16
13 13 15 17 18 17 16 16 16 17 17 16 16 15 15 15 15 15 15 15 15 15 15 15 15 15 15 15 15 15 15 16 16 16 17 16 16 16 16 17 16 16 16 16 16 16 15 15 15
13 14 15 15 16 16 16 15 15 17 17 16 15 15 15 15 15 15 15 15 15 15 15 15 15 14 14 14 15 15 15 15 15 16 16 16 16 16 16 16 16 16 16 15 15 15 15 14 14
14 14 14 14 14 15 15 15 15 16 16 14 14 15 15 15 15 15 15 15 15 15 15 15 14 14 14 14 14 15 15 15 15 16 16 16 16 16 15 15 15 15 15 15 15 14 14 14 14
13 14 13 13 13 13 14 15 15 15 15 14 14 15 15 15 15 15 15 15 15 15 15 15 15 14 14 14 14 15 15 15 15 15 15 15 15 15 15 15 15 15 14 14 14 13 13 13 13
13 13 13 13 13 13 14 14 15 16 15 15 15 15 15 15 15 15 15 15 15 15 15 15 15 15 15 15 15 15 15 15 15 15 15 15 15 15 15 15 15 14 14 14 14 13 13 13 13
13 13 13 13 13 13 13 14 16 16 15 15 16 15 15 15 15 15 15 15 15 15 15 15 15 15 15 15 15 15 15 15 15 15 15 15 15 15 14 14 14 14 14 14 13 13 13 13 13
13 12 12 13 13 12 12 14 17 15 15 16 16 16 15 15 15 15 15 16 16 16 15 15 15 15 15 15 15 15 15 15 15 15 15 15 15 14 14 14 14 14 14 14 13 13 13 13 13
12 12 12 12 13 12 13 14 16 15 15 16 17 16 16 15 15 15 16 16 16 16 16 16 15 15 15 15 15 15 15 15 15 15 15 15 15 14 14 14 14 14 14 14 14 13 13 13 13
12 13 13 13 12 13 13 14 15 14 14 16 17 17 16 16 15 15 16 16 16 16 16 16 15 15 15 15 15 15 15 15 15 15 15 15 14 14 14 14 14 14 14 14 14 13 13 13 13
14 13 13 13 13 13 13 14 15 15 15 16 16 17 16 16 15 16 16 16 16 16 16 16 16 16 15 15 15 15 15 15 15 15 15 15 15 14 14 14 14 14 14 14 13 13 13 13 13
13 13 13 13 13 13 13 13 15 15 15 15 16 16 17 16 15 15 16 16 16 16 16 16 16 16 16 15 15 15 15 15 15 15 15 15 15 15 14 14 14 14 14 14 13 13 13 12 12
12 13 13 13 12 13 13 13 14 15 15 14 15 15 16 16 15 15 15 16 16 16 17 17 16 16 16 16 15 15 15 15 15 15 15 15 15 14 14 14 14 14 14 13 13 13 12 12 12
11 13 13 13 12 12 13 13 15 15 15 15 15 15 15 15 15 15 15 16 16 16 16 16 16 16 16 16 15 15 15 15 15 15 14 14 14 14 14 14 13 13 13 13 13 13 12 12 11
12 12 13 13 13 13 13 13 15 15 15 15 16 15 15 15 14 14 15 16 16 16 16 16 16 16 15 15 15 15 15 14 14 14 14 14 13 13 13 13 13 13 13 12 12 12 12 11 11
11 12 12 12 13 11 13 13 14 15 15 16 16 15 15 15 14 14 14 15 15 15 15 15 15 15 15 14 14 14 14 14 13 13 13 13 13 12 12 12 12 12 12 11 11 11 11 11 10
11 12 11 10 10 12 12 12 14 15 15 15 15 15 14 14 14 14 14 14 14 14 14 14 14 14 14 14 13 13 13 13 12 12 12 12 12 11 11 11 11 11 11 10 10 10 10 10 9
11 12 12 11 11 12 11 12 15 15 13 12 12 12 12 13 13 13 13 13 14 14 13 13 13 13 13 12 12 12 12 12 11 11 11 11 11 11 10 10 10 10 10 9 9 9 9 9 9
11 11 11 12 11 12 12 13 14 14 14 13 13 12 12 12 12 11 11 12 12 12 12 12 12 12 11 11 11 11 11 11 11 10 10 10 10 9 9 9 9 9 9 9 8 8 8 8 8
11 11 11 10 10 12 12 12 14 15 15 15 14 13 12 10 10 10 10 10 10 11 11 11 11 11 11 10 10 10 10 10 10 9 9 9 8 8 8 8 8 8 8 8 8 7 7 7 7
10 10 11 11 11 12 12 14 14 14 14 14 13 12 11 10 9 8 8 9 10 10 10 10 10 10 10 10 10 9 9 9 8 8 8 7 7 7 7 7 7 7 7 7 7 7 7 7 7
10 11 11 11 9 11 12 13 14 13 12 11 11 11 10 10 9 8 8 9 10 10 10 10 10 10 9 9 9 9 8 8 7 7 6 6 6 6 6 6 6 6 6 6 6 6 6 6 6
Wind_Speed
3 2 2 3 6 7 12 6 3 4 3 1 2 3 4 5 5 3 4 14 15 18 20 21 18 17 16 16 16 15 13 12 11 10 10 12 13 13 14 14 14 14 14 15 16 16 15 15 14
3 2 3 5 9 13 13 7 6 3 1 1 2 3 4 2 3 5 7 13 17 19 19 19 19 17 16 16 15 14 13 11 10 9 10 12 13 13 13 13 14 14 14 14 15 14 13 13 12
3 2 4 6 10 16 11 7 4 2 3 3 3 1 1 2 3 4 8 15 17 18 17 18 19 17 17 17 15 14 12 11 9 9 9 11 12 13 13 14 13 13 13 13 13 12 12 11 10
4 4 4 10 15 12 5 5 1 1 3 3 3 3 3 4 2 4 12 15 18 17 17 18 18 18 17 17 16 14 12 10 9 9 10 11 12 13 13 13 12 12 12 11 11 11 10 10 9
3 6 10 13 16 9 4 1 0 1 3 3 3 3 3 5 3 8 14 15 17 16 16 18 18 18 17 17 16 14 12 10 9 9 10 11 13 13 12 11 11 10 10 10 9 9 8 8 8
5 7 13 18 16 8 5 2 1 2 3 3 2 3 3 3 5 10 13 14 15 15 15 17 18 18 17 17 16 14 12 10 9 9 10 11 12 11 10 9 9 9 8 8 7 7 7 6 6
9 11 17 20 16 10 6 3 1 2 4 4 1 3 3 4 6 9 11 12 13 14 14 15 17 17 17 17 16 14 12 10 9 9 10 11 10 10 9 8 7 7 7 6 6 5 5 5 5
7 8 16 16 17 11 6 4 3 3 4 4 3 2 3 3 6 8 9 11 12 12 12 13 15 15 15 15 16 14 12 11 9 9 10 10 9 8 7 6 6 5 5 5 5 4 4 5 5
7 10 17 17 15 10 6 5 3 3 6 6 6 5 2 6 8 9 9 9 10 10 10 11 12 13 13 13 14 13 12 11 10 9 9 7 6 6 6 4 5 4 4 4 4 4 4 3 3
11 14 16 11 8 9 7 5 4 5 8 6 8 8 4 8 9 9 10 11 12 12 10 9 10 11 12 11 12 10 10 10 8 7 8 6 4 3 3 6 3 3 2 2 3 3 3 2 1
15 16 13 7 6 7 6 4 2 4 6 6 7 7 4 6 7 8 9 10 11 11 9 9 9 10 11 9 9 8 7 8 7 7 7 5 5 4 5 5 5 5 5 4 3 4 3 2 2
15 17 14 9 5 4 3 2 1 1 3 4 5 5 2 4 6 8 8 9 9 10 10 9 9 9 10 9 8 8 7 7 7 7 7 6 5 4 4 5 5 5 5 4 5 4 4 4 4
17 16 16 11 5 2 2 4 3 4 2 1 4 5 2 1 4 6 7 8 9 10 10 10 9 9 9 8 7 7 7 7 7 7 8 7 6 5 5 5 5 6 5 5 5 6 5 6 6
14 14 15 13 10 5 6 9 7 8 5 3 1 4 4 1 4 6 7 8 9 10 10 10 11 11 10 9 8 8 8 7 7 7 8 8 7 6 5 6 6 6 7 6 6 7 6 6 6
11 13 12 13 13 7 6 14 17 13 9 9 7 3 3 2 3 7 8 9 10 10 10 11 11 11 11 10 10 8 8 8 8 8 9 9 9 8 7 6 6 7 8 8 8 8 7 7 7
11 12 12 11 13 9 10 19 19 11 10 14 11 7 4 2 3 4 6 8 9 9 10 10 9 11 11 10 9 8 8 8 8 8 8 10 10 10 8 7 7 8 8 8 7 7 7 7 7
11 14 16 11 14 10 14 15 13 7 11 15 14 10 6 5 4 3 4 6 8 9 10 10 11 11 11 10 9 8 8 8 8 7 8 9 10 11 10 9 9 9 8 8 7 7 7 8 8
19 17 16 13 14 14 16 15 9 6 10 16 17 13 9 7 5 2 3 4 6 8 9 9 10 10 9 8 7 6 7 7 7 7 8 9 9 10 11 9 10 10 7 7 8 9 8 7 7
15 15 15 12 11 14 16 15 13 10 10 15 17 17 13 10 5 2 2 3 5 7 8 9 9 9 8 6 6 6 6 6 6 6 7 8 8 9 10 9 9 9 8 9 9 8 8 7 6
14 15 14 10 11 12 13 15 14 13 13 14 16 18 17 13 9 5 4 4 5 6 7 7 8 8 8 7 5 4 4 4 4 3 4 4 6 7 8 9 8 8 8 10 10 9 6 6 5
14 16 14 11 9 8 7 10 16 16 15 14 15 16 18 15 11 8 6 5 5 5 6 5 6 6 6 6 5 4 3 3 3 3 2 2 4 5 6 8 8 7 7 8 9 9 10 8 6
11 11 12 14 12 7 10 7 11 15 16 17 17 18 18 16 11 9 8 7 6 5 4 5 5 5 4 5 5 6 5 5 3 1 1 1 2 3 4 5 6 6 6 7 8 8 8 8 7
7 9 10 11 9 6 9 7 6 9 15 18 18 19 18 16 12 10 9 8 7 6 6 6 6 6 5 4 4 4 3 2 1 1 2 2 1 2 3 3 4 5 5 6 7 7 8 7 8
10 11 9 6 6 7 10 10 7 7 12 13 16 18 18 15 13 11 9 9 8 8 7 7 7 7 6 5 4 3 3 2 2 2 2 2 1 1 2 3 3 4 4 5 6 6 7 7 8
10 14 7 7 8 7 6 8 8 5 7 9 10 11 11 11 11 11 12 12 11 10 9 8 8 7 6 5 5 3 2 1 1 2 2 2 2 2 3 3 3 3 3 4 4 4 4 5 5
11 10 5 7 8 5 5 8 6 5 5 6 7 7 7 9 10 12 13 13 12 11 10 9 8 7 5 4 4 3 1 0 1 2 2 2 2 2 3 3 3 3 3 3 3 2 2 2 2
8 5 1 2 3 4 6 4 7 6 6 5 5 6 7 8 9 11 12 13 12 12 10 9 8 7 5 4 3 2 1 1 1 2 2 2 2 2 2 2 2 2 3 2 1 1 2 2 3
2 6 4 3 5 5 4 5 4 4 2 2 3 4 5 5 7 10 11 12 11 10 9 8 7 6 5 3 2 1 0 1 2 2 2 1 1 1 1 1 1 2 3 3 2 3 3 4 4
6 6 4 4 3 3 3 3 2 2 0 3 5 5 4 4 7 9 11 11 10 10 9 8 7 6 4 3 2 1 0 1 1 1 1 0 0 1 1 2 2 3 3 3 4 4 4 5 5
5 8 9 6 4 4 3 2 2 3 3 5 5 4 2 4 7 9 11 11 10 10 9 8 7 6 4 3 2 1 1 1 1 1 1 1 1 2 2 3 3 4 4 4 5 5 5 6 6
Wind_Direction
298 283 205 203 206 217 219 198 187 172 194 260 277 240 214 178 175 106 112 154 148 152 154 152 152 151 148 142 135 130 123 116 112 113 116 116 112 105 100 94 92 91 92 93 92 90 88 85 82
278 233 197 205 218 214 209 196 192 190 213 297 210 220 202 139 47 91 141 153 153 152 155 157 149 149 145 140 135 131 124 118 114 118 120 120 115 108 102 96 94 94 94 93 92 89 87 83 80
227 230 197 201 219 220 204 181 187 257 272 216 180 166 161 75 76 124 148 155 154 152 155 148 147 146 143 139 136 133 127 120 118 123 126 124 118 110 104 99 97 97 97 96 94 90 84 79 75
202 182 192 215 214 213 193 143 140 234 156 179 186 143 103 35 14 129 147 157 154 152 153 148 147 144 142 140 139 136 131 125 123 126 127 127 120 111 105 102 102 102 101 99 96 91 83 76 72
204 192 196 210 212 194 174 117 23 181 151 154 184 155 102 23 40 135 149 156 153 151 152 150 147 144 144 143 141 139 135 131 129 131 129 126 118 112 109 107 107 106 105 103 99 93 86 79 73
182 198 202 205 197 184 170 150 166 121 128 119 153 144 71 50 110 136 146 155 153 151 153 152 147 146 147 145 143 141 137 135 131 129 128 123 118 115 113 111 109 107 106 104 101 96 90 84 76
193 199 209 206 193 184 168 139 100 113 114 77 42 133 94 88 110 132 144 152 153 154 156 156 157 154 149 147 146 144 141 138 132 126 120 120 122 123 122 120 115 111 107 103 103 100 92 83 73
192 203 207 205 195 183 153 128 73 61 80 55 28 93 103 112 121 126 138 151 156 159 162 161 162 161 160 157 151 148 146 142 135 125 120 122 126 130 131 140 120 113 108 103 101 99 92 83 73
177 203 204 199 198 173 149 134 85 78 95 77 57 36 356 131 135 134 142 153 160 164 165 165 165 165 163 160 155 154 152 148 148 143 137 151 165 160 158 127 115 116 112 106 105 107 109 112 103
185 203 204 194 190 159 138 119 97 128 108 79 50 42 90 139 150 153 160 165 170 171 167 169 169 167 165 159 163 165 164 165 176 167 169 181 176 177 172 136 148 148 142 145 128 133 163 230 236
194 203 189 171 149 141 134 115 94 138 100 64 31 23 100 146 161 166 174 176 178 176 172 174 173 173 171 167 171 170 171 174 181 180 181 183 184 185 196 192 185 199 206 214 184 213 229 264 290
199 203 189 176 150 145 147 144 110 112 98 76 32 26 109 165 176 180 184 187 183 185 184 181 179 180 181 178 179 181 183 186 188 190 194 194 197 205 208 217 215 220 222 233 244 255 253 261 264
201 197 196 193 187 196 235 251 271 251 202 142 43 46 61 198 201 200 200 197 193 194 194 191 187 189 187 186 188 195 199 200 200 197 203 209 212 216 220 225 227 233 238 239 248 257 265 269 271
196 188 192 199 199 217 252 266 261 248 205 224 339 27 37 288 237 220 213 210 207 204 201 196 196 197 194 195 199 204 206 207 213 211 213 216 224 227 231 236 236 240 241 248 255 261 268 272 272
175 178 182 196 198 200 250 259 245 243 243 260 268 306 7 359 250 237 228 221 217 212 207 200 199 200 202 205 207 212 211 211 214 219 222 224 230 235 238 245 244 245 246 250 256 263 267 270 271
177 184 191 193 191 184 203 241 237 232 247 256 257 267 304 323 280 255 241 232 223 214 209 203 199 203 207 209 211 214 217 215 219 222 227 230 235 239 244 247 250 252 252 251 253 261 262 263 265
182 197 197 181 186 180 202 236 238 235 247 251 247 251 273 298 291 264 246 235 223 216 209 203 202 206 209 212 216 220 222 222 225 225 230 234 238 241 243 249 253 254 251 251 252 255 259 267 270
186 192 193 189 184 192 209 229 231 235 245 248 245 244 254 273 281 268 244 230 217 212 207 203 201 206 207 208 215 219 226 230 231 233 236 241 243 244 247 251 255 256 252 252 251 253 255 262 274
184 185 186 186 175 197 215 229 237 240 240 243 242 240 243 255 263 240 220 204 196 196 196 197 197 199 196 195 204 212 221 225 227 232 242 247 249 249 248 252 257 253 250 254 257 255 255 255 253
174 181 177 169 176 195 216 231 236 237 235 237 238 237 239 241 240 231 210 197 198 189 188 190 193 194 196 200 201 210 213 222 229 228 239 253 258 257 253 254 257 255 254 257 257 250 249 251 233
181 184 175 163 162 192 211 236 234 234 235 238 238 237 238 236 239 234 213 194 188 179 176 171 174 182 188 191 185 180 190 203 208 220 239 279 284 274 265 263 263 262 256 258 260 254 248 253 244
175 182 169 161 164 187 203 234 226 224 226 230 233 234 233 231 235 231 210 192 178 163 148 146 149 150 156 174 190 201 212 222 224 239 260 301 320 308 294 281 273 268 262 261 263 259 254 253 253
158 164 169 174 181 187 204 237 243 216 227 229 229 231 231 232 228 224 210 188 166 154 145 138 132 123 121 132 153 179 193 202 195 228 256 272 296 326 323 305 286 277 270 267 266 263 254 249 252
134 137 132 160 198 224 215 225 255 224 232 232 228 229 230 233 231 221 199 175 164 155 148 144 133 118 111 110 113 128 147 170 205 239 260 270 273 297 343 332 311 296 287 279 274 268 261 254 253
163 155 151 177 205 225 181 221 251 256 250 247 243 234 231 234 231 214 191 182 171 164 157 152 139 124 115 107 100 96 100 148 242 263 270 275 276 289 334 335 324 317 308 298 287 275 271 268 260
180 187 189 187 197 188 183 229 250 277 281 271 263 254 247 239 227 211 197 186 174 165 160 155 144 131 122 113 101 89 75 330 285 283 281 280 290 306 323 324 325 327 324 317 304 296 306 312 303
173 192 8 88 131 194 204 240 274 259 260 261 260 254 249 242 226 209 192 182 174 166 163 157 148 139 132 122 114 100 63 327 293 288 280 280 294 308 317 325 336 350 354 351 351 21 26 45 45
205 164 164 168 180 213 207 225 223 193 218 294 313 298 277 243 217 199 185 177 170 162 157 156 153 145 139 136 126 107 355 311 291 277 275 288 316 322 320 0 22 31 35 42 60 65 63 76 66
162 182 197 187 231 234 214 187 186 192 314 321 327 325 299 240 203 189 180 173 165 161 161 160 159 155 154 152 150 178 253 281 263 248 258 318 23 30 49 57 63 61 57 63 77 76 76 81 75
216 205 200 204 204 226 242 222 139 230 278 293 308 317 279 210 191 183 177 171 169 171 172 172 169 168 164 160 168 184 215 225 215 182 130 102 89 77 77 83 82 74 69 70 83 85 81 84 81
Height
1534 1535 1537 1540 1539 1535 1531 1530 1530 1532 1531 1533 1534 1532 1529 1529 1532 1538 1539 1540 1544 1547 1550 1552 1556 1559 1562 1563 1565 1566 1566 1567 1566 1567 1567 1568 1568 1568 1568 1567 1567 1566 1566 1567 1567 1567 1568 1568 1568
1533 1535 1538 1538 1534 1533 1530 1528 1531 1530 1532 1534 1534 1533 1532 1532 1535 1535 1536 1540 1544 1548 1551 1554 1557 1560 1562 1564 1566 1567 1567 1568 1568 1568 1569 1569 1570 1570 1570 1570 1569 1569 1569 1569 1569 1570 1570 1570 1570
1531 1533 1537 1534 1530 1527 1526 1529 1529 1532 1532 1533 1533 1533 1534 1535 1536 1535 1536 1540 1545 1548 1552 1554 1557 1560 1563 1565 1567 1568 1569 1569 1569 1569 1570 1571 1571 1572 1572 1572 1571 1571 1571 1572 1572 1572 1572 1572 1572
1531 1534 1535 1531 1528 1525 1526 1529 1531 1531 1531 1532 1532 1533 1535 1535 1536 1536 1536 1540 1545 1549 1553 1555 1558 1561 1564 1566 1567 1569 1570 1570 1570 1571 1572 1572 1573 1573 1573 1574 1574 1574 1574 1574 1574 1574 1575 1574 1574
1529 1530 1529 1527 1525 1526 1529 1531 1531 1529 1530 1532 1532 1532 1535 1535 1534 1535 1538 1542 1546 1550 1553 1556 1559 1562 1564 1566 1568 1569 1570 1571 1572 1572 1573 1574 1574 1575 1575 1575 1575 1576 1576 1576 1576 1576 1576 1576 1576
1528 1526 1524 1523 1524 1527 1529 1531 1531 1530 1530 1532 1533 1533 1536 1536 1536 1537 1540 1543 1548 1550 1554 1557 1560 1562 1565 1567 1568 1570 1571 1572 1573 1574 1574 1575 1576 1576 1576 1577 1577 1577 1577 1577 1578 1578 1578 1578 1578
1526 1523 1519 1517 1522 1527 1529 1531 1531 1530 1531 1533 1534 1534 1537 1537 1538 1539 1542 1545 1548 1551 1554 1557 1560 1563 1565 1567 1569 1570 1572 1573 1574 1574 1575 1576 1577 1577 1577 1578 1578 1578 1578 1578 1578 1579 1579 1579 1578
1522 1523 1519 1518 1521 1526 1530 1531 1533 1532 1533 1535 1535 1535 1538 1539 1539 1541 1543 1546 1549 1552 1555 1558 1561 1563 1565 1567 1569 1570 1572 1573 1574 1575 1575 1576 1577 1578 1578 1578 1579 1579 1579 1579 1579 1579 1579 1579 1579
1521 1524 1520 1518 1519 1524 1529 1531 1533 1534 1534 1536 1537 1537 1538 1539 1540 1542 1544 1547 1550 1552 1555 1558 1561 1563 1565 1567 1568 1570 1571 1572 1574 1575 1575 1576 1577 1578 1578 1578 1579 1579 1579 1579 1579 1579 1579 1579 1579
1519 1521 1518 1519 1521 1524 1529 1531 1533 1534 1534 1536 1537 1537 1537 1539 1541 1543 1545 1547 1550 1552 1554 1557 1560 1563 1565 1567 1568 1570 1571 1572 1573 1574 1575 1576 1577 1577 1578 1578 1578 1579 1579 1579 1579 1579 1579 1579 1578
1515 1516 1519 1523 1525 1526 1529 1532 1533 1533 1535 1538 1538 1538 1538 1539 1542 1544 1546 1548 1551 1553 1554 1557 1559 1562 1564 1566 1568 1569 1570 1572 1573 1574 1574 1575 1576 1577 1577 1578 1578 1578 1578 1579 1578 1578 1578 1578 1578
1513 1514 1519 1523 1526 1528 1530 1532 1534 1534 1537 1538 1538 1538 1538 1540 1542 1544 1546 1548 1550 1552 1554 1556 1558 1561 1563 1565 1567 1568 1570 1571 1572 1573 1574 1574 1575 1576 1576 1577 1577 1577 1578 1578 1578 1578 1578 1577 1576
1510 1513 1518 1522 1526 1529 1531 1532 1534 1534 1536 1537 1538 1538 1539 1540 1542 1544 1546 1548 1550 1551 1553 1555 1557 1559 1562 1564 1566 1567 1568 1570 1571 1571 1572 1573 1574 1574 1575 1575 1576 1576 1576 1576 1576 1576 1576 1576 1575
1509 1513 1518 1522 1526 1529 1532 1532 1534 1532 1535 1537 1538 1539 1539 1540 1541 1543 1545 1547 1548 1550 1552 1553 1555 1558 1560 1562 1564 1566 1567 1568 1569 1570 1571 1572 1572 1573 1573 1574 1574 1575 1575 1575 1575 1575 1574 1574 1573
1510 1514 1518 1522 1525 1529 1533 1531 1529 1531 1534 1535 1536 1538 1538 1539 1540 1542 1543 1545 1547 1549 1551 1552 1554 1556 1558 1561 1562 1564 1565 1566 1567 1568 1569 1570 1571 1571 1572 1572 1573 1573 1573 1573 1573 1573 1572 1572 1571
1509 1513 1517 1519 1523 1527 1535 1528 1524 1528 1531 1532 1534 1535 1537 1537 1538 1540 1541 1543 1545 1547 1549 1551 1553 1555 1557 1559 1561 1562 1564 1565 1565 1566 1567 1568 1569 1569 1570 1570 1571 1571 1571 1570 1570 1570 1569 1569 1568
1508 1509 1512 1517 1520 1525 1529 1524 1523 1526 1528 1528 1530 1532 1534 1535 1537 1538 1539 1541 1543 1546 1548 1550 1551 1553 1556 1557 1559 1561 1562 1563 1564 1564 1565 1566 1566 1567 1568 1568 1568 1568 1568 1568 1567 1567 1566 1565 1565
1501 1502 1507 1513 1518 1521 1523 1521 1522 1524 1525 1525 1526 1529 1531 1533 1535 1536 1537 1538 1541 1543 1546 1548 1550 1552 1554 1555 1557 1558 1559 1560 1561 1562 1563 1563 1564 1564 1565 1565 1565 1565 1564 1564 1564 1563 1562 1561 1560
1496 1501 1506 1510 1515 1519 1520 1519 1520 1521 1522 1521 1522 1524 1527 1530 1532 1533 1534 1536 1538 1541 1543 1545 1547 1549 1551 1553 1554 1556 1557 1558 1558 1559 1560 1560 1560 1561 1561 1561 1561 1561 1560 1560 1559 1558 1557 1557 1556
1499 1502 1505 1511 1515 1518 1518 1518 1517 1517 1517 1517 1518 1520 1523 1526 1528 1529 1531 1533 1536 1538 1540 1543 1545 1547 1549 1550 1552 1553 1554 1554 1555 1556 1556 1556 1556 1556 1556 1556 1556 1556 1555 1555 1554 1553 1552 1551 1551
1500 1501 1503 1509 1515 1517 1518 1517 1513 1512 1513 1514 1515 1516 1519 1522 1524 1526 1528 1530 1533 1535 1537 1540 1542 1544 1546 1547 1548 1549 1550 1551 1551 1551 1551 1552 1552 1551 1551 1551 1551 1550 1550 1549 1549 1548 1547 1546 1546
1502 1501 1504 1508 1513 1515 1516 1512 1504 1504 1506 1508 1511 1512 1515 1518 1521 1523 1525 1528 1529 1532 1534 1536 1539 1541 1542 1544 1545 1546 1546 1547 1547 1547 1547 1546 1546 1546 1546 1545 1545 1544 1544 1543 1543 1542 1541 1541 1540
1502 1505 1506 1507 1509 1513 1514 1512 1499 1500 1501 1502 1505 1508 1511 1514 1517 1519 1521 1524 1526 1528 1531 1533 1535 1537 1538 1540 1541 1542 1542 1542 1542 1542 1542 1541 1541 1540 1540 1539 1539 1538 1538 1537 1536 1536 1535 1535 1534
1505 1507 1510 1510 1511 1517 1510 1511 1501 1496 1496 1496 1500 1503 1506 1510 1513 1515 1517 1520 1522 1525 1527 1529 1531 1533 1535 1536 1537 1538 1538 1538 1538 1537 1537 1537 1536 1535 1534 1534 1533 1533 1532 1531 1531 1530 1530 1529 1529
1504 1505 1514 1518 1518 1511 1509 1509 1499 1493 1495 1496 1498 1500 1503 1505 1508 1510 1512 1515 1518 1521 1523 1526 1528 1530 1531 1532 1533 1533 1534 1534 1533 1533 1533 1532 1531 1530 1529 1529 1528 1527 1527 1526 1525 1525 1524 1524 1524
1502 1501 1504 1506 1508 1506 1513 1506 1495 1494 1496 1497 1498 1499 1500 1501 1503 1505 1507 1510 1513 1516 1520 1522 1524 1526 1528 1529 1529 1529 1529 1529 1529 1529 1528 1527 1526 1526 1525 1524 1523 1523 1522 1521 1520 1520 1519 1519 1519
1503 1504 1505 1502 1505 1506 1502 1501 1497 1493 1493 1495 1495 1496 1497 1498 1499 1500 1502 1505 1508 1512 1516 1519 1521 1523 1524 1525 1526 1526 1525 1525 1524 1524 1523 1522 1521 1521 1520 1520 1519 1518 1517 1517 1516 1515 1515 1514 1514
1503 1503 1506 1509 1508 1502 1499 1499 1492 1490 1490 1491 1493 1494 1494 1494 1495 1497 1498 1501 1505 1509 1513 1516 1518 1520 1521 1522 1522 1522 1521 1521 1520 1519 1518 1517 1517 1516 1516 1515 1515 1514 1513 1513 1512 1512 1511 1511 1510
1506 1506 1503 1502 1502 1501 1498 1494 1489 1490 1491 1492 1492 1492 1492 1492 1493 1494 1496 1499 1503 1507 1510 1513 1515 1517 1518 1518 1518 1517 1516 1516 1515 1514 1513 1513 1513 1512 1512 1511 1511 1510 1510 1509 1509 1508 1508 1507 1507
1502 1500 1500 1503 1509 1504 1498 1496 1490 1492 1493 1493 1493 1492 1491 1491 1491 1492 1494 1497 1501 1505 1508 1510 1512 1513 1514 1514 1513 1512 1512 1511 1510 1509 1509 1509 1509 1509 1508 1508 1507 1507 1507 1506 1506 1505 1505 1505 1504